Location: Kershaw
(34.5481°N, 80.5823°W)
Time: 04:43:19
(UTC+00:00)

Transit 2A Rocket - Pass Details

Date: 04 October 2022
Orbit: 589 x 911 km, 66.7° (Epoch: 27 November)

Event Time Altitude Azimuth Distance (km) Brightness Sun altitude
Exits shadow 09:39:04 - 182° (S) 2,720 7.7 -21.4°
Reaches altitude 10° 09:41:07 10° 173° (S) 1,945 7.1 -21.0°
Maximum altitude 09:44:58 32° 111° (ESE) 1,033 6.2 -20.2°
Drops below altitude 10° 09:48:45 10° 48° (NE) 1,918 7.9 -19.4°
Sets 09:51:10 0° 38° (NE) 2,829 8.7 -18.9°
